Wind From: 11-12-2017 07:30 Until: 12-12-2017 06:00 warning for: Wind Level: Orange info button

Power and phone distribution networks may be disrupted for relatively long periods., Roofs and chimneys can be damaged. , Tree branches may break. , Vehicles can be deported. , Traffic may be disrupted, particularly on secondary roads in forest areas. Limit your trips. , Limit your speed in highway driving, especially if you drive a vehicle or hitch sensitive to wind. , Do not go for walks in forests or along the coast., In town, be vigilant against possible falling objects., Do not work on roofs and do not touch any electrical line fallen on the ground., Store or secure sensitive objects to wind or likely to be damaged., Always install power generators outside buildings. 


Meteo18 Weather Cam more information Meteo18 Weather Cam


Thunder radar more information blitzortung!


Rain radar more information rain snow radar


Visit our other weather sites:

Template documentation
and downloads

And another site



Weather Underground History page Text

Daily Summary for December 1, 2017 Units:  Metric    English   Both
« Previous Day
Next Day »
Daily Weekly Monthly Yearly Custom
  High: Low: Average:
Temperature: 1.7 °C -0.2 °C 0.6 °C
Dew Point: 0.7 °C -1.0 °C -0.3 °C
Humidity: 95 % 90 % 94 %
Wind Speed: 16.1 km/h 0.0 km/h 5.4 km/h
Wind Gust: 30.6 km/h - -
Wind:- - WSW
Pressure: 1020.9 hPa 1010.4 hPa -
Precipitation: 3.0 mm    
Historical Graphs
 
 
Tabular Data for December 1, 2017
Time Temperature Dew Point Pressure Wind Wind Speed Wind Gust Humidity Rainfall Rate (Hourly)
00:02 0.0 °C -0.8 °C 1010.4 hPa WSW 8.0 km/h 14.5 km/h 94 % 0.0 mm
00:12 0.0 °C -0.8 °C 1010.4 hPa West 4.8 km/h 12.9 km/h 94 % 0.0 mm
00:17 0.1 °C -0.9 °C 1010.7 hPa WNW 3.2 km/h 12.9 km/h 93 % 0.0 mm
00:22 0.1 °C -0.9 °C 1010.7 hPa Calm   9.7 km/h 93 % 0.0 mm
00:32 0.1 °C -0.9 °C 1010.7 hPa WNW 3.2 km/h 8.0 km/h 93 % 0.0 mm
00:37 0.1 °C -0.9 °C 1010.7 hPa Calm   8.0 km/h 93 % 0.0 mm
00:42 0.1 °C -0.9 °C 1010.7 hPa West 3.2 km/h 6.4 km/h 93 % 0.0 mm
01:02 0.1 °C -0.8 °C 1010.7 hPa WNW 3.2 km/h 6.4 km/h 94 % 0.0 mm
01:07 0.1 °C -0.8 °C 1010.4 hPa West 1.6 km/h 4.8 km/h 94 % 0.0 mm
01:12 0.1 °C -0.8 °C 1010.4 hPa Calm   4.8 km/h 94 % 0.0 mm
01:17 0.1 °C -0.8 °C 1010.4 hPa NW 1.6 km/h 3.2 km/h 94 % 0.0 mm
01:27 0.0 °C -0.7 °C 1010.4 hPa Calm   4.8 km/h 95 % 0.0 mm
01:32 0.0 °C -0.7 °C 1010.4 hPa WNW 1.6 km/h 4.8 km/h 95 % 0.0 mm
01:37 0.0 °C -0.7 °C 1010.4 hPa WNW 1.6 km/h 4.8 km/h 95 % 0.0 mm
01:42 0.0 °C -0.7 °C 1010.4 hPa West 4.8 km/h 4.8 km/h 95 % 0.0 mm
01:52 0.0 °C -0.7 °C 1010.4 hPa WNW 1.6 km/h 6.4 km/h 95 % 0.0 mm
01:57 0.1 °C -0.6 °C 1010.4 hPa NW 3.2 km/h 8.0 km/h 95 % 0.0 mm
02:07 0.1 °C -0.6 °C 1010.4 hPa NNW 3.2 km/h 8.0 km/h 95 % 0.0 mm
02:12 0.1 °C -0.6 °C 1010.7 hPa NNW 1.6 km/h 8.0 km/h 95 % 0.0 mm
02:17 0.1 °C -0.6 °C 1010.7 hPa NW 1.6 km/h 8.0 km/h 95 % 0.0 mm
02:27 0.1 °C -0.6 °C 1010.7 hPa WSW 3.2 km/h 9.7 km/h 95 % 0.0 mm
02:32 0.1 °C -0.6 °C 1010.7 hPa Calm   9.7 km/h 95 % 0.0 mm
02:42 0.1 °C -0.6 °C 1010.7 hPa Calm   6.4 km/h 95 % 0.0 mm
02:47 0.1 °C -0.6 °C 1011.1 hPa WNW 1.6 km/h 4.8 km/h 95 % 0.0 mm
02:52 0.1 °C -0.6 °C 1011.1 hPa NW 1.6 km/h 6.4 km/h 95 % 0.0 mm
02:57 0.1 °C -0.6 °C 1011.1 hPa NW 3.2 km/h 6.4 km/h 95 % 0.0 mm
03:02 0.1 °C -0.6 °C 1011.1 hPa NW 1.6 km/h 6.4 km/h 95 % 0.0 mm
03:12 0.1 °C -0.6 °C 1011.1 hPa Calm   6.4 km/h 95 % 0.0 mm
03:17 0.1 °C -0.6 °C 1011.1 hPa NNW 8.0 km/h 8.0 km/h 95 % 0.0 mm
03:22 0.1 °C -0.6 °C 1011.1 hPa West 1.6 km/h 8.0 km/h 95 % 0.0 mm
03:47 0.1 °C -0.8 °C 1011.1 hPa NNW 1.6 km/h 9.7 km/h 94 % 0.0 mm
03:52 0.1 °C -0.8 °C 1011.1 hPa WNW 6.4 km/h 6.4 km/h 94 % 0.0 mm
04:22 0.1 °C -0.8 °C 1011.1 hPa Calm   4.8 km/h 94 % 0.0 mm
04:32 0.1 °C -0.8 °C 1011.4 hPa Calm   8.0 km/h 94 % 0.0 mm
04:42 0.0 °C -0.7 °C 1011.4 hPa West 1.6 km/h 8.0 km/h 95 % 0.0 mm
05:02 0.0 °C -0.7 °C 1011.1 hPa WNW 1.6 km/h 8.0 km/h 95 % 0.0 mm
05:12 0.0 °C -0.7 °C 1011.4 hPa WNW 1.6 km/h 6.4 km/h 95 % 0.0 mm
05:17 0.0 °C -0.7 °C 1011.4 hPa Calm   6.4 km/h 95 % 0.0 mm
05:22 0.0 °C -0.7 °C 1011.4 hPa Calm   6.4 km/h 95 % 0.0 mm
05:27 0.0 °C -0.8 °C 1011.4 hPa Calm   4.8 km/h 94 % 0.0 mm
05:32 0.0 °C -0.8 °C 1011.4 hPa West 1.6 km/h 4.8 km/h 94 % 0.0 mm
05:42 -0.1 °C -0.9 °C 1011.4 hPa WNW 4.8 km/h 4.8 km/h 94 % 0.0 mm
05:52 -0.1 °C -0.9 °C 1011.4 hPa NW 3.2 km/h 6.4 km/h 94 % 0.0 mm
05:57 -0.1 °C -0.9 °C 1011.4 hPa NW 1.6 km/h 6.4 km/h 94 % 0.0 mm
06:02 -0.1 °C -0.9 °C 1011.4 hPa WNW 1.6 km/h 6.4 km/h 94 % 0.0 mm
06:12 -0.1 °C -0.9 °C 1011.4 hPa WNW 1.6 km/h 8.0 km/h 94 % 0.0 mm
06:17 -0.1 °C -0.9 °C 1011.4 hPa West 1.6 km/h 6.4 km/h 94 % 0.0 mm
06:22 -0.1 °C -0.9 °C 1011.7 hPa NNW 3.2 km/h 6.4 km/h 94 % 0.0 mm
06:27 -0.1 °C -0.9 °C 1011.7 hPa WNW 4.8 km/h 6.4 km/h 94 % 0.0 mm
06:32 -0.1 °C -0.9 °C 1011.7 hPa NW 3.2 km/h 6.4 km/h 94 % 0.0 mm
06:37 -0.2 °C -1.0 °C 1011.7 hPa Calm   6.4 km/h 94 % 0.0 mm
06:42 -0.2 °C -1.0 °C 1011.7 hPa WNW 3.2 km/h 6.4 km/h 94 % 0.0 mm
06:47 -0.2 °C -1.0 °C 1011.7 hPa Calm   6.4 km/h 94 % 0.0 mm
06:57 -0.2 °C -1.0 °C 1012.1 hPa West 4.8 km/h 8.0 km/h 94 % 0.0 mm
07:02 -0.2 °C -0.9 °C 1012.1 hPa WNW 4.8 km/h 8.0 km/h 95 % 0.0 mm
07:07 -0.2 °C -0.9 °C 1012.1 hPa WNW 4.8 km/h 11.3 km/h 95 % 0.0 mm
07:22 -0.2 °C -0.9 °C 1012.1 hPa WNW 6.4 km/h 11.3 km/h 95 % 0.0 mm
07:27 -0.2 °C -0.9 °C 1012.1 hPa WNW 3.2 km/h 9.7 km/h 95 % 0.0 mm
07:32 -0.2 °C -0.9 °C 1012.1 hPa WNW 6.4 km/h 9.7 km/h 95 % 0.0 mm
07:37 -0.2 °C -0.9 °C 1012.1 hPa West 1.6 km/h 9.7 km/h 95 % 0.0 mm
07:42 -0.2 °C -0.9 °C 1012.1 hPa NW 9.7 km/h 9.7 km/h 95 % 0.0 mm
07:52 -0.2 °C -0.9 °C 1012.1 hPa WNW 6.4 km/h 9.7 km/h 95 % 0.0 mm
08:07 -0.1 °C -0.8 °C 1012.1 hPa NW 6.4 km/h 12.9 km/h 95 % 0.0 mm
08:12 -0.1 °C -0.8 °C 1012.1 hPa WNW 6.4 km/h 12.9 km/h 95 % 0.0 mm
08:17 -0.1 °C -0.8 °C 1012.4 hPa NW 6.4 km/h 17.7 km/h 95 % 0.0 mm
08:22 0.0 °C -0.7 °C 1012.4 hPa NNW 8.0 km/h 17.7 km/h 95 % 0.0 mm
08:27 0.0 °C -0.7 °C 1012.4 hPa WNW 9.7 km/h 16.1 km/h 95 % 0.0 mm
08:32 0.0 °C -0.7 °C 1012.4 hPa WNW 4.8 km/h 16.1 km/h 95 % 0.0 mm
08:37 0.0 °C -0.7 °C 1012.8 hPa WNW 1.6 km/h 17.7 km/h 95 % 0.0 mm
08:42 0.0 °C -0.7 °C 1012.8 hPa WNW 3.2 km/h 17.7 km/h 95 % 0.0 mm
08:47 0.0 °C -0.8 °C 1012.8 hPa West 1.6 km/h 12.9 km/h 94 % 0.0 mm
08:52 0.0 °C -0.8 °C 1012.8 hPa WNW 6.4 km/h 12.9 km/h 94 % 0.0 mm
08:57 0.0 °C -0.8 °C 1012.8 hPa WNW 8.0 km/h 20.9 km/h 94 % 0.0 mm
09:07 0.1 °C -0.8 °C 1012.8 hPa WNW 4.8 km/h 20.9 km/h 94 % 0.0 mm
09:12 0.1 °C -0.8 °C 1012.8 hPa WNW 1.6 km/h 20.9 km/h 94 % 0.0 mm
09:17 0.1 °C -0.8 °C 1013.1 hPa WNW 3.2 km/h 14.5 km/h 94 % 0.0 mm
09:22 0.2 °C -0.7 °C 1013.1 hPa West 3.2 km/h 14.5 km/h 94 % 0.0 mm
09:32 0.2 °C -0.7 °C 1013.1 hPa WNW 6.4 km/h 16.1 km/h 94 % 0.0 mm
09:37 0.2 °C -0.5 °C 1013.1 hPa West 8.0 km/h 16.1 km/h 95 % 0.0 mm
09:47 0.1 °C -0.6 °C 1013.1 hPa WNW 4.8 km/h 16.1 km/h 95 % 0.0 mm
09:52 0.2 °C -0.5 °C 1013.1 hPa West 3.2 km/h 16.1 km/h 95 % 0.0 mm
09:57 0.2 °C -0.5 °C 1013.4 hPa WNW 4.8 km/h 12.9 km/h 95 % 0.0 mm
10:02 0.2 °C -0.5 °C 1013.4 hPa WNW 3.2 km/h 12.9 km/h 95 % 0.0 mm
10:07 0.2 °C -0.5 °C 1013.4 hPa WNW 3.2 km/h 12.9 km/h 95 % 0.0 mm
10:12 0.3 °C -0.4 °C 1013.4 hPa WNW 3.2 km/h 12.9 km/h 95 % 0.0 mm
10:17 0.3 °C -0.4 °C 1013.8 hPa NW 3.2 km/h 9.7 km/h 95 % 0.0 mm
10:22 0.4 °C -0.3 °C 1013.8 hPa West 3.2 km/h 9.7 km/h 95 % 0.0 mm
10:32 0.4 °C -0.3 °C 1013.8 hPa NNW 6.4 km/h 8.0 km/h 95 % 0.0 mm
10:37 0.4 °C -0.3 °C 1013.8 hPa WNW 3.2 km/h 9.7 km/h 95 % 0.0 mm
10:42 0.4 °C -0.3 °C 1014.1 hPa WNW 4.8 km/h 9.7 km/h 95 % 0.0 mm
10:47 0.4 °C -0.3 °C 1014.1 hPa West 1.6 km/h 9.7 km/h 95 % 0.0 mm
10:52 0.4 °C -0.3 °C 1014.1 hPa WNW 3.2 km/h 9.7 km/h 95 % 0.0 mm
10:57 0.4 °C -0.3 °C 1014.1 hPa Calm   8.0 km/h 95 % 0.0 mm
11:02 0.5 °C -0.2 °C 1014.1 hPa WNW 1.6 km/h 8.0 km/h 95 % 0.0 mm
11:12 0.6 °C -0.1 °C 1014.4 hPa WNW 3.2 km/h 6.4 km/h 95 % 0.0 mm
11:17 0.6 °C -0.1 °C 1014.4 hPa WNW 4.8 km/h 6.4 km/h 95 % 0.0 mm
11:22 0.6 °C -0.1 °C 1014.4 hPa WNW 4.8 km/h 6.4 km/h 95 % 0.0 mm
11:27 0.6 °C -0.1 °C 1014.4 hPa WNW 4.8 km/h 6.4 km/h 95 % 0.0 mm
11:32 0.6 °C -0.1 °C 1014.4 hPa NW 6.4 km/h 6.4 km/h 95 % 0.0 mm
11:42 0.7 °C 0.0 °C 1014.4 hPa West 1.6 km/h 8.0 km/h 95 % 0.0 mm
11:47 0.8 °C 0.1 °C 1014.4 hPa WNW 3.2 km/h 8.0 km/h 95 % 0.0 mm
11:57 0.9 °C 0.2 °C 1014.4 hPa WNW 4.8 km/h 6.4 km/h 95 % 0.0 mm
12:02 0.9 °C 0.2 °C 1014.4 hPa Calm   6.4 km/h 95 % 0.0 mm
12:12 1.0 °C 0.1 °C 1014.4 hPa WNW 6.4 km/h 6.4 km/h 94 % 0.0 mm
12:17 1.0 °C 0.3 °C 1014.4 hPa WNW 4.8 km/h 6.4 km/h 95 % 0.0 mm
12:22 1.1 °C 0.4 °C 1014.4 hPa WNW 6.4 km/h 8.0 km/h 95 % 0.0 mm
12:27 1.1 °C 0.4 °C 1014.4 hPa NW 1.6 km/h 8.0 km/h 95 % 0.0 mm
12:32 1.1 °C 0.4 °C 1014.8 hPa NW 3.2 km/h 9.7 km/h 95 % 0.3 mm
12:37 1.1 °C 0.4 °C 1014.8 hPa WNW 4.8 km/h 9.7 km/h 95 % 0.3 mm
12:42 1.1 °C 0.4 °C 1014.8 hPa NW 3.2 km/h 12.9 km/h 95 % 0.3 mm
12:52 1.2 °C 0.5 °C 1014.8 hPa North 4.8 km/h 9.7 km/h 95 % 0.5 mm
13:07 1.2 °C 0.3 °C 1014.8 hPa NNW 8.0 km/h 16.1 km/h 94 % 0.5 mm
13:12 1.2 °C 0.3 °C 1014.8 hPa NNW 4.8 km/h 12.9 km/h 94 % 0.8 mm
13:22 1.2 °C 0.3 °C 1014.8 hPa NNW 6.4 km/h 17.7 km/h 94 % 1.0 mm
13:27 1.3 °C 0.4 °C 1014.8 hPa NW 8.0 km/h 17.7 km/h 94 % 0.8 mm
13:32 1.3 °C 0.4 °C 1014.8 hPa NNW 11.3 km/h 17.7 km/h 94 % 1.0 mm
13:37 1.2 °C 0.3 °C 1014.8 hPa NW 9.7 km/h 17.7 km/h 94 % 1.0 mm
13:42 1.3 °C 0.4 °C 1014.8 hPa North 9.7 km/h 17.7 km/h 94 % 1.0 mm
13:52 1.3 °C 0.4 °C 1014.8 hPa NE 9.7 km/h 16.1 km/h 94 % 1.3 mm
13:57 1.3 °C 0.4 °C 1014.8 hPa NNE 8.0 km/h 17.7 km/h 94 % 1.0 mm
14:12 1.4 °C 0.5 °C 1015.1 hPa NNW 6.4 km/h 17.7 km/h 94 % 1.0 mm
14:17 1.5 °C 0.6 °C 1015.1 hPa NW 8.0 km/h 17.7 km/h 94 % 1.3 mm
14:22 1.6 °C 0.7 °C 1015.1 hPa North 11.3 km/h 17.7 km/h 94 % 1.0 mm
14:32 1.5 °C 0.6 °C 1015.1 hPa NNW 9.7 km/h 17.7 km/h 94 % 1.0 mm
14:37 1.5 °C 0.6 °C 1015.1 hPa North 6.4 km/h 17.7 km/h 94 % 0.8 mm
14:42 1.6 °C 0.6 °C 1015.1 hPa NNE 9.7 km/h 17.7 km/h 93 % 0.8 mm
15:02 1.6 °C 0.6 °C 1015.1 hPa North 9.7 km/h 16.1 km/h 93 % 0.5 mm
15:12 1.6 °C 0.6 °C 1015.5 hPa NNW 9.7 km/h 14.5 km/h 93 % 0.5 mm
15:22 1.6 °C 0.6 °C 1015.8 hPa West 3.2 km/h 14.5 km/h 93 % 0.5 mm
15:27 1.6 °C 0.6 °C 1015.8 hPa North 12.9 km/h 14.5 km/h 93 % 0.5 mm
15:32 1.6 °C 0.6 °C 1015.8 hPa NNW 9.7 km/h 14.5 km/h 93 % 0.5 mm
15:42 1.6 °C 0.6 °C 1016.1 hPa NNE 8.0 km/h 12.9 km/h 93 % 0.5 mm
15:52 1.6 °C 0.6 °C 1016.1 hPa NNW 4.8 km/h 11.3 km/h 93 % 0.5 mm
15:57 1.6 °C 0.6 °C 1016.1 hPa NNW 4.8 km/h 11.3 km/h 93 % 0.5 mm
16:02 1.6 °C 0.6 °C 1016.1 hPa NNW 4.8 km/h 11.3 km/h 93 % 0.5 mm
16:07 1.7 °C 0.7 °C 1016.1 hPa NNW 6.4 km/h 9.7 km/h 93 % 0.5 mm
16:12 1.6 °C 0.6 °C 1016.5 hPa NNW 4.8 km/h 9.7 km/h 93 % 0.3 mm
16:22 1.6 °C 0.6 °C 1016.5 hPa NNE 1.6 km/h 11.3 km/h 93 % 0.3 mm
16:32 1.5 °C 0.5 °C 1016.5 hPa NW 6.4 km/h 11.3 km/h 93 % 0.3 mm
16:52 1.3 °C 0.1 °C 1016.8 hPa North 9.7 km/h 17.7 km/h 92 % 0.3 mm
16:57 1.3 °C 0.0 °C 1016.8 hPa North 9.7 km/h 19.3 km/h 91 % 0.3 mm
17:12 1.2 °C -0.1 °C 1017.2 hPa NNW 3.2 km/h 19.3 km/h 91 % 0.3 mm
17:27 0.9 °C -0.3 °C 1017.5 hPa North 3.2 km/h 11.3 km/h 92 % 0.3 mm
17:32 0.9 °C -0.3 °C 1017.5 hPa NW 1.6 km/h 11.3 km/h 92 % 0.3 mm
17:47 0.8 °C -0.2 °C 1017.5 hPa NNW 1.6 km/h 9.7 km/h 93 % 0.0 mm
17:52 0.9 °C -0.1 °C 1017.5 hPa North 4.8 km/h 8.0 km/h 93 % 0.0 mm
18:07 1.1 °C 0.1 °C 1017.8 hPa NNW 8.0 km/h 11.3 km/h 93 % 0.0 mm
18:12 1.2 °C 0.2 °C 1017.8 hPa WNW 11.3 km/h 12.9 km/h 93 % 0.0 mm
18:22 1.3 °C 0.3 °C 1017.8 hPa North 6.4 km/h 16.1 km/h 93 % 0.0 mm
18:42 1.3 °C 0.1 °C 1018.2 hPa NW 8.0 km/h 12.9 km/h 92 % 0.0 mm
18:47 1.2 °C 0.0 °C 1018.2 hPa North 6.4 km/h 12.9 km/h 92 % 0.0 mm
18:52 1.1 °C -0.1 °C 1018.2 hPa North 4.8 km/h 12.9 km/h 92 % 0.0 mm
18:57 1.1 °C -0.1 °C 1018.2 hPa NNW 8.0 km/h 14.5 km/h 92 % 0.0 mm
19:17 0.9 °C -0.1 °C 1018.5 hPa NNW 12.9 km/h 17.7 km/h 93 % 0.0 mm
19:27 1.1 °C 0.1 °C 1018.5 hPa NNE 6.4 km/h 19.3 km/h 93 % 0.0 mm
19:52 1.2 °C 0.2 °C 1018.8 hPa NNE 14.5 km/h 16.1 km/h 93 % 0.0 mm
20:07 1.4 °C 0.1 °C 1018.8 hPa NNE 9.7 km/h 24.1 km/h 91 % 0.0 mm
20:17 1.5 °C 0.2 °C 1018.8 hPa NW 11.3 km/h 30.6 km/h 91 % 0.0 mm
20:22 1.5 °C 0.2 °C 1018.8 hPa North 14.5 km/h 30.6 km/h 91 % 0.0 mm
20:32 1.5 °C 0.0 °C 1019.2 hPa NW 9.7 km/h 29.0 km/h 90 % 0.0 mm
20:37 1.5 °C 0.0 °C 1019.2 hPa North 6.4 km/h 27.4 km/h 90 % 0.0 mm
20:42 1.4 °C 0.1 °C 1019.2 hPa North 16.1 km/h 27.4 km/h 91 % 0.0 mm
20:52 1.1 °C -0.1 °C 1019.5 hPa NE 11.3 km/h 24.1 km/h 92 % 0.0 mm
20:57 0.9 °C -0.1 °C 1019.5 hPa NE 9.7 km/h 24.1 km/h 93 % 0.0 mm
21:02 0.9 °C -0.1 °C 1019.5 hPa North 6.4 km/h 25.7 km/h 93 % 0.0 mm
21:07 1.0 °C 0.0 °C 1019.9 hPa NNE 4.8 km/h 25.7 km/h 93 % 0.0 mm
21:17 1.0 °C 0.0 °C 1019.9 hPa North 6.4 km/h 14.5 km/h 93 % 0.0 mm
21:22 0.9 °C -0.1 °C 1019.9 hPa North 14.5 km/h 16.1 km/h 93 % 0.0 mm
21:32 0.9 °C -0.1 °C 1020.2 hPa North 11.3 km/h 16.1 km/h 93 % 0.0 mm
21:37 0.9 °C -0.1 °C 1020.2 hPa NNW 12.9 km/h 20.9 km/h 93 % 0.0 mm
21:42 0.9 °C -0.1 °C 1020.2 hPa NNW 6.4 km/h 22.5 km/h 93 % 0.0 mm
21:47 1.0 °C -0.2 °C 1020.2 hPa NE 11.3 km/h 22.5 km/h 92 % 0.0 mm
21:52 0.9 °C -0.3 °C 1020.2 hPa NNW 9.7 km/h 22.5 km/h 92 % 0.0 mm
22:02 0.9 °C -0.3 °C 1020.2 hPa NNW 11.3 km/h 19.3 km/h 92 % 0.0 mm
22:07 0.9 °C -0.3 °C 1020.2 hPa North 6.4 km/h 19.3 km/h 92 % 0.0 mm
22:17 0.8 °C -0.4 °C 1020.5 hPa NNE 6.4 km/h 19.3 km/h 92 % 0.0 mm
22:22 0.9 °C -0.3 °C 1020.5 hPa NW 4.8 km/h 19.3 km/h 92 % 0.0 mm
22:32 0.9 °C -0.3 °C 1020.5 hPa NNE 8.0 km/h 16.1 km/h 92 % 0.0 mm
22:52 0.8 °C -0.4 °C 1020.5 hPa NNW 14.5 km/h 19.3 km/h 92 % 0.0 mm
23:07 0.8 °C -0.4 °C 1020.5 hPa North 16.1 km/h 24.1 km/h 92 % 0.0 mm
23:12 0.8 °C -0.4 °C 1020.5 hPa NNE 12.9 km/h 24.1 km/h 92 % 0.0 mm
23:27 0.7 °C -0.5 °C 1020.9 hPa North 11.3 km/h 17.7 km/h 92 % 0.0 mm
23:32 0.7 °C -0.5 °C 1020.5 hPa NNE 6.4 km/h 17.7 km/h 92 % 0.0 mm
23:42 0.6 °C -0.5 °C 1020.9 hPa NNE 3.2 km/h 17.7 km/h 92 % 0.0 mm
23:52 0.5 °C -0.6 °C 1020.9 hPa NNE 11.3 km/h 19.3 km/h 92 % 0.0 mm
23:57 0.4 °C -0.7 °C 1020.9 hPa NE 8.0 km/h 19.3 km/h 92 % 0.0 mm
Meteo18
Compliments of Weather Underground - 4 mb

Script developed by  Jim McMurry - jmcmurry@mwt.net Adapted for the template by  Wim van der Kuil - Leuven-Template.eu

You find our weather info also at:

European Weather Network

Weather Underground

Equipment we use:

Weather-station
Davis Vue

Weather-program
Meteohub

Weather-server
Raspberry PI 2 B+

Provider
1 and 1

Davis Vue

Meteohub

Raspberry PI 2 B+

1 and 1